Home   Weather   Reutlingen   Past weeks

Flag for Germany Past Weather in Reutlingen, Baden-Württemberg, Germany — Yesterday and Last 2 Weeks

Now
25 °F

Clear.


Feels Like: 25 °F
Forecast: 24 / 43 °F
Wind: 1 mph from North

Location: Stuttgart-Echterdingen

Current Time: Dec 5, 2016 at 9:25:44 am

Latest Report: Dec 5, 2016 at 8:50 am


Visibility: 6 mi

Pressure: 30.30 "Hg

Humidity: 100%

Dew Point: 25 °F

Location of ReutlingenLocation

Past Weather in Reutlingen — Graph

°F

Reutlingen Temperature Yesterday

Maximum temperature yesterday: 34 °F (at 2:20 pm)
Minimum temperature yesterday: 19 °F (at 4:20 am)
Average temperature yesterday: 27 °F

High & Low Weather Summary for the Past Weeks

 TemperatureHumidityPressure
High61 °F (Nov 20, 1:50 pm)100% (Nov 23, 12:20 am)30.51 "Hg (Nov 23, 12:20 am)
Low19 °F (Nov 30, 5:20 am)31% (Dec 1, 1:50 pm)29.59 "Hg (Nov 21, 12:20 pm)
Average38 °F83%30.11 "Hg
* Reported Nov 20 8:20 am — Dec 5 8:20 am, Reutlingen, Weather by CustomWeather, © 2016

Note: Actual official high and low records may vary slightly from our data, if they occured in-between our weather recording intervals... More about our weather records

Advertising

Reutlingen Weather History for the Previous 24 Hours

Scroll right to see more
 ConditionsComfort  
Time TempWeatherWind HumidityBarometerVisibility
8:20 am
Mon, Dec 5
23 °FFog.1 mph93%30.30 "Hg6 mi
7:50 am23 °FLight fog.1 mph93%30.30 "Hg5 mi
7:20 am23 °FLight fog.1 mph100%30.30 "Hg6 mi
6:50 am23 °FLight fog.1 mph93%30.30 "Hg6 mi
6:20 am23 °FLight fog.1 mph93%30.30 "Hg6 mi
5:50 am23 °FLight fog.1 mph100%30.30 "Hg6 mi
5:20 am23 °FLight fog.2 mph93%30.27 "Hg6 mi
4:50 am23 °FClear.1 mph93%30.30 "Hg6 mi
4:20 am23 °FPassing clouds.No wind100%30.30 "HgN/A
3:50 am23 °FPassing clouds.No wind100%30.30 "HgN/A
3:20 am25 °FPassing clouds.No wind93%30.30 "HgN/A
2:50 am25 °FPassing clouds.1 mph93%30.30 "HgN/A
2:20 am27 °FPassing clouds.2 mph93%30.30 "HgN/A
1:50 am27 °FPassing clouds.2 mph93%30.30 "HgN/A
1:20 am28 °FPassing clouds.2 mph86%30.30 "HgN/A
12:50 am28 °FPassing clouds.1 mph93%30.30 "HgN/A
12:20 am28 °FPassing clouds.1 mph93%30.30 "HgN/A
11:50 pm
Sun, Dec 4
30 °FPassing clouds.2 mph86%30.30 "HgN/A
11:20 pm30 °FLow clouds.5 mph93%30.30 "HgN/A
10:50 pm30 °FOvercast.2 mph93%30.30 "HgN/A
10:20 pm30 °FOvercast.3 mph93%30.30 "HgN/A
9:50 pm30 °FOvercast.3 mph93%30.30 "HgN/A
9:20 pm30 °FOvercast.5 mph93%30.30 "HgN/A
8:50 pm30 °FOvercast.6 mph86%30.30 "HgN/A
8:20 pm30 °FOvercast.7 mph86%30.30 "HgN/A
7:50 pm30 °FOvercast.6 mph93%30.30 "HgN/A
7:20 pm32 °FOvercast.6 mph87%30.30 "HgN/A
6:50 pm32 °FOvercast.5 mph87%30.30 "HgN/A
6:20 pm32 °FPassing clouds.3 mph87%30.30 "HgN/A
5:50 pm32 °FPassing clouds.6 mph87%30.30 "HgN/A
5:20 pm32 °FPassing clouds.5 mph87%30.30 "HgN/A
4:50 pm32 °FPassing clouds.6 mph87%30.27 "HgN/A
4:20 pm32 °FPartly sunny.6 mph87%30.27 "HgN/A
3:50 pm32 °FPartly sunny.7 mph87%30.27 "HgN/A
3:20 pm32 °FPartly sunny.8 mph87%30.27 "HgN/A
2:50 pm32 °FPartly sunny.7 mph87%30.27 "HgN/A
2:20 pm34 °FPartly sunny.7 mph81%30.27 "HgN/A
1:50 pm32 °FPartly sunny.3 mph87%30.27 "HgN/A
1:20 pm32 °FPartly sunny.3 mph87%30.27 "HgN/A
12:50 pm32 °FPartly sunny.3 mph87%30.27 "HgN/A
12:20 pm30 °FPartly sunny.No wind93%30.27 "HgN/A
11:50 am30 °FPartly sunny.2 mph86%30.30 "HgN/A
11:20 am28 °FPartly sunny.1 mph93%30.30 "HgN/A
10:50 am28 °FPartly sunny.2 mph86%30.30 "HgN/A
10:20 am27 °FPartly sunny.1 mph93%30.30 "HgN/A
9:50 am27 °FPartly sunny.1 mph93%30.30 "HgN/A
9:20 am25 °FPartly sunny.1 mph93%30.30 "HgN/A
Weather by CustomWeather, © 2016

See weather overviewHow to use our weather pages